Flag for U.S.A. Weather past 2 weeks in Syracuse, New York, U.S.A.

Now
78 °F

Broken clouds.


Feels Like: 79 °F
Forecast: 65 / 78 °F
Wind: 13 mph from West

Location: Syracuse Hancock International Airport

Current Time: Aug 1, 2015 at 4:21:56 PM

Latest Report: Aug 1, 2015 at 3:54 PM


Visibility: 10 mi

Pressure: 29.80 "Hg

Humidity: 46%

Dew point: 56 °F

Location of SyracuseLocation

Historic Weather in Syracuse — Graph

°F

Syracuse temperature yesterday

Maximum temperature yesterday: 83 °F (at 2:54 PM)
Minimum temperature yesterday: 67 °F (at 5:54 AM)
Average temperature yesterday: 74 °F

Past Weeks' High & Low Weather Summary

 TemperatureHumidityPressure
High91 °F (Jul 29, 1:54 PM)100% (Jul 26, 2:54 AM)30.01 "Hg (Jul 26, 2:54 AM)
Low56 °F (Jul 24, 5:54 AM)29% (Jul 23, 6:54 PM)29.61 "Hg (Jul 21, 6:54 AM)
Average74 °F68%29.85 "Hg
* Reported Jul 17 2:54 PM — Aug 1 2:54 PM, Syracuse, Weather by CustomWeather, © 2015

Note: Actual official high and low records may vary slightly from our data, if they occured in-between our weather recording intervals... More about our weather records

Advertising

Syracuse weather history for previous 24 hours

 ConditionsComfort  
Time TempWeatherWind HumidityBarometerVisibility
2:54 PM
Sat, Aug 1
78 °FScattered clouds.14 mph48%29.81 "Hg10 mi
1:54 PM79 °FBroken clouds.17 mph47%29.80 "Hg10 mi
12:54 PM78 °FScattered clouds.15 mph48%29.80 "Hg10 mi
11:54 AM77 °FPartly sunny.16 mph54%29.81 "Hg10 mi
10:54 AM73 °FPartly sunny.12 mph64%29.80 "Hg10 mi
9:54 AM74 °FScattered clouds.10 mph62%29.80 "Hg10 mi
8:54 AM72 °FScattered clouds.12 mph68%29.79 "Hg10 mi
7:54 AM70 °FScattered clouds.12 mph76%29.78 "Hg10 mi
6:54 AM67 °FScattered clouds.9 mph85%29.78 "Hg10 mi
5:54 AM67 °FPartly cloudy.9 mph85%29.76 "Hg10 mi
4:54 AM66 °FPassing clouds.No wind90%29.75 "Hg10 mi
3:54 AM66 °FPassing clouds.5 mph90%29.75 "Hg10 mi
2:54 AM67 °FPassing clouds.3 mph90%29.75 "Hg10 mi
1:54 AM68 °FLight rain. Mostly cloudy.5 mph87%29.75 "Hg10 mi
12:54 AM70 °FLight rain. Mostly cloudy.No wind76%29.78 "Hg10 mi
11:54 PM
Fri, Jul 31
70 °FPartly cloudy.7 mph76%29.77 "Hg10 mi
10:54 PM74 °FPassing clouds.8 mph67%29.76 "Hg10 mi
9:54 PM72 °FPassing clouds.No wind76%29.76 "Hg10 mi
8:54 PM71 °FScattered clouds.5 mph76%29.74 "Hg10 mi
7:54 PM76 °FPassing clouds.5 mph60%29.75 "Hg10 mi
6:54 PM76 °FScattered clouds.3 mph60%29.75 "Hg10 mi
5:54 PM80 °FPartly sunny.14 mph51%29.75 "Hg10 mi
4:54 PM83 °FScattered clouds.12 mph43%29.76 "Hg10 mi
Weather by CustomWeather, © 2015

See weather overviewHow to use our weather pages